This demonstration page uses our WeatherBlox Daily Observations layout. Learn more.

Left ArrowRight Arrow

Hourly Observations for September 11, 2017

Temp ( °F °C ) Dew Point ( °F °C ) Humidity (%) Winds ( mph kmh ) Pressure ( in mb ) Visibility ( mi km ) Precip ( " mm )
12:51 am 00:51 Clear 78 25.6 46 7.8 32 32 SSE 10 17 29.87 1011 10 16.0934 0 0
1:51 am 01:51 Clear 73 22.8 47 8.3 40 40 SE 6 9 29.88 1012 10 16.0934 0 0
2:51 am 02:51 Clear 74 23.3 47 8.3 38 38 E 10 17 29.88 1012 10 16.0934 0 0
3:51 am 03:51 Clear 76 24.4 48 8.9 37 37 E 13 20 29.89 1012 10 16.0934 0 0
4:51 am 04:51 Clear 75 23.9 48 8.9 39 39 E 9 15 29.9 1013 10 16.0934 0 0
5:51 am 05:51 Clear 73 22.8 48 8.9 41 41 E 7 11 29.93 1013 10 16.0934 0 0
6:51 am 06:51 Sunny 75 23.9 49 9.4 40 40 ESE 10 17 29.94 1014 10 16.0934 0 0
7:51 am 07:51 Sunny 80 26.7 49 9.4 34 34 ESE 12 19 29.96 1015 10 16.0934 0 0
8:51 am 08:51 Sunny 85 29.4 49 9.4 29 29 ESE 10 17 29.96 1015 10 16.0934 0 0
9:51 am 09:51 Sunny 89 31.7 49 9.4 25 25 SE 10 17 29.96 1015 10 16.0934 0 0
10:51 am 10:51 Sunny 91 32.8 50 10 25 25 SSE 9 15 29.94 1014 10 16.0934 0 0
11:51 am 11:51 Sunny 94 34.4 50 10 22 22 VRB 3 6 29.92 1013 10 16.0934 0 0
12:51 pm 12:51 Sunny 95 35 50 10 22 22 SSE 10 17 29.89 1012 10 16.0934 0 0
1:51 pm 13:51 Sunny 97 36.1 48 8.9 19 19 VRB 5 7 29.86 1011 10 16.0934 0 0
2:51 pm 14:51 Sunny 97 36.1 48 8.9 19 19 SW 9 15 29.82 1010 10 16.0934 0 0
3:51 pm 15:51 Sunny 97 36.1 48 8.9 19 19 SSE 6 9 29.8 1009 10 16.0934 0 0
4:51 pm 16:51 Sunny 97 36.1 46 7.8 17 17 S 7 11 29.8 1009 10 16.0934 0 0
5:51 pm 17:51 Sunny 96 35.6 46 7.8 18 18 S 7 11 29.8 1009 10 16.0934 0 0
6:51 pm 18:51 Clear 90 32.2 47 8.3 23 23 S 6 9 29.81 1010 10 16.0934 0 0
7:51 pm 19:51 Clear 85 29.4 45 7.2 25 25 SE 5 7 29.83 1010 10 16.0934 0 0
8:51 pm 20:51 Clear 81 27.2 43 6.1 26 26 E 6 9 29.85 1011 10 16.0934 0 0
9:51 pm 21:51 Clear 80 26.7 43 6.1 27 27 SE 5 7 29.85 1011 10 16.0934 0 0
10:51 pm 22:51 Clear 79 26.1 43 6.1 28 28 SSE 5 7 29.86 1011 10 16.0934 0 0
11:51 pm 23:51 Clear 74 23.3 42 5.6 32 32 E 6 9 29.86 1011 10 16.0934 0 0

Powered by AerisWeather